| time (UTC) | temp C | wind direction | speed KPH | gust KPH | rain 1hr cm | rain 24hr cm | rain mn cm | humidity % | barometer mb |
| 20260504081717 | 10 | 236 | 8.0 | 0.0 | 0.00 | 0.00 | 0.00 | 85 | 1006.8 |
| 20260504081217 | 10 | 268 | 6.4 | 0.0 | 0.00 | 0.00 | 0.00 | 83 | 1006.9 |
| 20260504080717 | 11 | 360 | 12.9 | 0.0 | 0.00 | 0.00 | 0.00 | 84 | 1006.8 |
| 20260504080216 | 11 | 360 | 12.9 | 0.0 | 0.00 | 0.00 | 0.00 | 84 | 1006.8 |
| 20260504070213 | 10 | 248 | 8.0 | 0.0 | 0.00 | 0.00 | 0.00 | 86 | 1007.0 |
| 20260504060210 | 10 | 267 | 9.7 | 0.0 | 0.00 | 0.00 | 0.00 | 83 | 1007.8 |
| 20260504050707 | 12 | 253 | 8.0 | 0.0 | 0.00 | 0.00 | 0.00 | 78 | 1008.4 |
| 20260504050206 | 12 | 252 | 11.3 | 0.0 | 0.00 | 0.00 | 0.00 | 79 | 1008.4 |
| 20260504045709 | 12 | 252 | 8.0 | 0.0 | 0.00 | 0.00 | 0.00 | 78 | 1008.4 |
| 20260504045206 | 12 | 249 | 11.3 | 0.0 | 0.00 | 0.00 | 0.00 | 78 | 1008.4 |
| 20260504044706 | 12 | 243 | 9.7 | 0.0 | 0.00 | 0.00 | 0.00 | 77 | 1008.4 |
| 20260504044205 | 12 | 265 | 11.3 | 0.0 | 0.00 | 0.00 | 0.00 | 77 | 1008.5 |
| 20260504043705 | 12 | 263 | 11.3 | 0.0 | 0.00 | 0.00 | 0.00 | 78 | 1008.5 |
| 20260504043205 | 12 | 261 | 11.3 | 0.0 | 0.00 | 0.00 | 0.00 | 79 | 1008.5 |
| 20260504042704 | 12 | 262 | 12.9 | 0.0 | 0.00 | 0.00 | 0.00 | 79 | 1008.5 |
| 20260504042204 | 12 | 268 | 11.3 | 0.0 | 0.00 | 0.00 | 0.00 | 79 | 1008.6 |
| 20260504041704 | 12 | 265 | 14.5 | 0.0 | 0.00 | 0.00 | 0.00 | 79 | 1008.5 |
| 20260504041203 | 12 | 261 | 11.3 | 0.0 | 0.00 | 0.00 | 0.00 | 79 | 1008.5 |
| 20260504040703 | 12 | 262 | 6.4 | 0.0 | 0.00 | 0.00 | 0.00 | 79 | 1008.6 |
| 20260504040203 | 12 | 261 | 9.7 | 0.0 | 0.00 | 0.00 | 0.00 | 79 | 1008.6 |
| 20260504035703 | 12 | 261 | 9.7 | 0.0 | 0.00 | 0.00 | 0.00 | 79 | 1008.6 |
| 20260504035202 | 12 | 261 | 11.3 | 0.0 | 0.00 | 0.00 | 0.00 | 78 | 1008.6 |
| 20260504034703 | 12 | 267 | 9.7 | 0.0 | 0.00 | 0.00 | 0.00 | 78 | 1008.7 |
| 20260504034202 | 12 | 259 | 11.3 | 0.0 | 0.00 | 0.00 | 0.00 | 78 | 1008.7 |
| 20260504033702 | 12 | 263 | 11.3 | 0.0 | 0.00 | 0.00 | 0.00 | 77 | 1008.8 |
| 20260504033201 | 12 | 265 | 11.3 | 0.0 | 0.00 | 0.00 | 0.00 | 76 | 1008.8 |
| 20260504032701 | 13 | 259 | 9.7 | 0.0 | 0.00 | 0.00 | 0.00 | 76 | 1008.8 |
| 20260504032201 | 13 | 257 | 11.3 | 0.0 | 0.00 | 0.00 | 0.00 | 76 | 1008.8 |
| 20260504031700 | 13 | 360 | 8.0 | 0.0 | 0.00 | 0.00 | 0.00 | 75 | 1008.8 |
| 20260504031200 | 13 | 360 | 8.0 | 0.0 | 0.00 | 0.00 | 0.00 | 74 | 1008.9 |
| 20260504030700 | 13 | 250 | 12.9 | 0.0 | 0.00 | 0.00 | 0.00 | 74 | 1008.8 |
| 20260504030200 | 13 | 360 | 9.7 | 0.0 | 0.00 | 0.00 | 0.00 | 74 | 1008.7 |
| 20260504025659 | 13 | 360 | 8.0 | 0.0 | 0.00 | 0.00 | 0.00 | 73 | 1008.8 |
| 20260504025159 | 13 | 257 | 8.0 | 0.0 | 0.00 | 0.00 | 0.00 | 72 | 1008.8 |
| 20260504024659 | 13 | 260 | 9.7 | 0.0 | 0.00 | 0.00 | 0.00 | 72 | 1008.7 |
| 20260504024158 | 13 | 266 | 11.3 | 0.0 | 0.00 | 0.00 | 0.00 | 73 | 1008.7 |
| 20260504023658 | 13 | 256 | 8.0 | 0.0 | 0.00 | 0.00 | 0.00 | 72 | 1008.8 |
| 20260504023158 | 14 | 256 | 11.3 | 0.0 | 0.00 | 0.00 | 0.00 | 72 | 1008.7 |
| 20260504022658 | 13 | 260 | 11.3 | 0.0 | 0.00 | 0.00 | 0.00 | 72 | 1008.7 |
| 20260504022157 | 14 | 360 | 8.0 | 0.0 | 0.00 | 0.00 | 0.00 | 71 | 1008.7 |
| 20260504021657 | 14 | 360 | 6.4 | 0.0 | 0.00 | 0.00 | 0.00 | 71 | 1008.7 |
| 20260504021157 | 15 | 245 | 8.0 | 0.0 | 0.00 | 0.00 | 0.00 | 70 | 1008.7 |
| 20260504020656 | 15 | 258 | 6.4 | 0.0 | 0.00 | 0.00 | 0.00 | 69 | 1008.7 |
| 20260504020156 | 15 | 254 | 11.3 | 0.0 | 0.00 | 0.00 | 0.00 | 69 | 1008.7 |
| 20260504015656 | 15 | 248 | 11.3 | 0.0 | 0.00 | 0.00 | 0.00 | 69 | 1008.7 |
| 20260504015156 | 15 | 242 | 12.9 | 0.0 | 0.00 | 0.00 | 0.00 | 69 | 1008.7 |
| 20260504014655 | 15 | 245 | 14.5 | 0.0 | 0.00 | 0.00 | 0.00 | 68 | 1008.6 |
| 20260504014155 | 15 | 244 | 12.9 | 0.0 | 0.00 | 0.00 | 0.00 | 68 | 1008.6 |
| 20260504013656 | 15 | 360 | 14.5 | 0.0 | 0.00 | 0.00 | 0.00 | 67 | 1008.5 |
| 20260504013154 | 16 | 250 | 14.5 | 0.0 | 0.00 | 0.00 | 0.00 | 67 | 1008.5 |
| 20260504012654 | 16 | 242 | 12.9 | 0.0 | 0.00 | 0.00 | 0.00 | 66 | 1008.5 |
| 20260504012154 | 16 | 360 | 12.9 | 0.0 | 0.00 | 0.00 | 0.00 | 65 | 1008.4 |
| 20260504011654 | 16 | 360 | 14.5 | 0.0 | 0.00 | 0.00 | 0.00 | 65 | 1008.4 |
| 20260504011153 | 16 | 244 | 14.5 | 0.0 | 0.00 | 0.00 | 0.00 | 64 | 1008.4 |
| 20260504010653 | 16 | 248 | 14.5 | 0.0 | 0.00 | 0.00 | 0.00 | 64 | 1008.4 |
| 20260504010153 | 17 | 266 | 12.9 | 0.0 | 0.00 | 0.00 | 0.00 | 63 | 1008.4 |
| 20260504005652 | 17 | 244 | 11.3 | 0.0 | 0.00 | 0.00 | 0.00 | 62 | 1008.4 |
| 20260504005152 | 17 | 360 | 16.1 | 0.0 | 0.00 | 0.00 | 0.00 | 62 | 1008.4 |
| 20260504004652 | 17 | 360 | 9.7 | 0.0 | 0.00 | 0.00 | 0.00 | 61 | 1008.5 |
| 20260504004152 | 17 | 360 | 8.0 | 0.0 | 0.00 | 0.00 | 0.00 | 60 | 1008.5 |
| 20260504003651 | 18 | 246 | 16.1 | 0.0 | 0.00 | 0.00 | 0.00 | 60 | 1008.4 |
| 20260504003151 | 18 | 257 | 11.3 | 0.0 | 0.00 | 0.00 | 0.00 | 59 | 1008.4 |
| 20260504002651 | 18 | 251 | 12.9 | 0.0 | 0.00 | 0.00 | 0.00 | 58 | 1008.3 |
| 20260504002152 | 18 | 244 | 12.9 | 0.0 | 0.00 | 0.00 | 0.00 | 57 | 1008.4 |
| 20260504001650 | 19 | 256 | 16.1 | 0.0 | 0.00 | 0.00 | 0.00 | 56 | 1008.5 |
| 20260504001150 | 19 | 360 | 17.7 | 0.0 | 0.00 | 0.00 | 0.00 | 55 | 1008.5 |
| 20260504000650 | 19 | 248 | 19.3 | 0.0 | 0.00 | 0.00 | 0.00 | 55 | 1008.5 |
| 20260504000150 | 19 | 256 | 17.7 | 0.0 | 0.00 | 0.00 | 0.00 | 54 | 1008.5 |
| 20260503235649 | 20 | 266 | 22.5 | 0.0 | 0.00 | 0.00 | 0.00 | 54 | 1008.5 |
| 20260503235150 | 20 | 254 | 24.1 | 0.0 | 0.00 | 0.00 | 0.00 | 53 | 1008.5 |
| 20260503234650 | 20 | 265 | 24.1 | 0.0 | 0.00 | 0.00 | 0.00 | 53 | 1008.6 |
| 20260503234149 | 20 | 262 | 29.0 | 0.0 | 0.00 | 0.00 | 0.00 | 53 | 1008.6 |
| 20260503233149 | 20 | 280 | 24.1 | 0.0 | 0.00 | 0.00 | 0.00 | 52 | 1008.6 |
| 20260503231648 | 20 | 263 | 25.7 | 0.0 | 0.00 | 0.00 | 0.00 | 51 | 1008.7 |
| 20260503231147 | 20 | 260 | 30.6 | 0.0 | 0.00 | 0.00 | 0.00 | 51 | 1008.7 |
| 20260503222645 | 20 | 260 | 24.1 | 0.0 | 0.00 | 0.00 | 0.00 | 49 | 1009.0 |
| 20260503222145 | 20 | 271 | 38.6 | 0.0 | 0.00 | 0.00 | 0.00 | 49 | 1009.0 |
| 20260503221644 | 20 | 269 | 32.2 | 0.0 | 0.00 | 0.00 | 0.00 | 48 | 1009.0 |
| 20260503221144 | 20 | 261 | 32.2 | 0.0 | 0.00 | 0.00 | 0.00 | 47 | 1009.0 |
| 20260503220644 | 20 | 262 | 27.4 | 0.0 | 0.00 | 0.00 | 0.00 | 49 | 1009.1 |
| 20260503220144 | 20 | 242 | 29.0 | 0.0 | 0.00 | 0.00 | 0.00 | 48 | 1009.1 |
| 20260503215643 | 20 | 253 | 29.0 | 0.0 | 0.00 | 0.00 | 0.00 | 49 | 1009.1 |
| 20260503215143 | 20 | 267 | 35.4 | 0.0 | 0.00 | 0.00 | 0.00 | 48 | 1009.1 |
| 20260503214643 | 20 | 256 | 38.6 | 0.0 | 0.00 | 0.00 | 0.00 | 48 | 1009.2 |
| 20260503214142 | 20 | 259 | 41.8 | 0.0 | 0.00 | 0.00 | 0.00 | 48 | 1009.1 |
| 20260503213642 | 20 | 257 | 29.0 | 0.0 | 0.00 | 0.00 | 0.00 | 49 | 1009.3 |
| 20260503213142 | 20 | 271 | 29.0 | 0.0 | 0.00 | 0.00 | 0.00 | 48 | 1009.2 |
| 20260503212642 | 19 | 266 | 35.4 | 0.0 | 0.00 | 0.00 | 0.00 | 49 | 1009.4 |
| 20260503212141 | 19 | 264 | 48.3 | 0.0 | 0.00 | 0.00 | 0.00 | 48 | 1009.3 |
| 20260503211641 | 19 | 259 | 43.5 | 0.0 | 0.00 | 0.00 | 0.00 | 48 | 1009.4 |
| 20260503211141 | 20 | 250 | 32.2 | 0.0 | 0.00 | 0.00 | 0.00 | 47 | 1009.4 |
| 20260503210641 | 20 | 254 | 38.6 | 0.0 | 0.00 | 0.00 | 0.00 | 47 | 1009.4 |
| 20260503210140 | 20 | 245 | 41.8 | 0.0 | 0.00 | 0.00 | 0.00 | 47 | 1009.4 |
| 20260503205640 | 20 | 258 | 33.8 | 0.0 | 0.00 | 0.00 | 0.00 | 46 | 1009.4 |
| 20260503205139 | 20 | 258 | 35.4 | 0.0 | 0.00 | 0.00 | 0.00 | 46 | 1009.4 |
| 20260503204639 | 20 | 232 | 27.4 | 0.0 | 0.00 | 0.00 | 0.00 | 47 | 1009.5 |
| 20260503204138 | 19 | 263 | 43.5 | 0.0 | 0.00 | 0.00 | 0.00 | 46 | 1009.4 |
| 20260503203638 | 20 | 251 | 35.4 | 0.0 | 0.00 | 0.00 | 0.00 | 48 | 1009.6 |
| 20260503203138 | 19 | 267 | 46.7 | 0.0 | 0.00 | 0.00 | 0.00 | 47 | 1009.6 |
| 20260503202638 | 20 | 248 | 53.1 | 0.0 | 0.00 | 0.00 | 0.00 | 45 | 1009.5 |
| 20260503202137 | 20 | 248 | 40.2 | 0.0 | 0.00 | 0.00 | 0.00 | 44 | 1009.4 |
| 20260503201637 | 20 | 244 | 38.6 | 0.0 | 0.00 | 0.00 | 0.00 | 44 | 1009.7 |
| 20260503201137 | 20 | 252 | 41.8 | 0.0 | 0.00 | 0.00 | 0.00 | 44 | 1009.6 |
| 20260503200637 | 20 | 249 | 38.6 | 0.0 | 0.00 | 0.00 | 0.00 | 44 | 1009.7 |
| 20260503200136 | 20 | 240 | 33.8 | 0.0 | 0.00 | 0.00 | 0.00 | 44 | 1009.8 |
| 20260503195636 | 20 | 257 | 54.7 | 0.0 | 0.00 | 0.00 | 0.00 | 44 | 1010.0 |
| 20260503195136 | 20 | 237 | 45.1 | 0.0 | 0.00 | 0.00 | 0.00 | 44 | 1010.1 |
| 20260503194636 | 20 | 246 | 40.2 | 0.0 | 0.00 | 0.00 | 0.00 | 45 | 1010.0 |
| 20260503194135 | 20 | 241 | 40.2 | 0.0 | 0.00 | 0.00 | 0.00 | 45 | 1010.2 |
| 20260503193635 | 20 | 257 | 37.0 | 0.0 | 0.00 | 0.00 | 0.00 | 45 | 1010.3 |
| 20260503192635 | 20 | 230 | 41.8 | 0.0 | 0.00 | 0.00 | 0.00 | 45 | 1010.3 |
| 20260503192134 | 20 | 237 | 35.4 | 0.0 | 0.00 | 0.00 | 0.00 | 45 | 1010.3 |
| 20260503191634 | 19 | 241 | 33.8 | 0.0 | 0.00 | 0.00 | 0.00 | 46 | 1010.2 |
| 20260503191134 | 19 | 238 | 35.4 | 0.0 | 0.00 | 0.00 | 0.00 | 45 | 1010.4 |
| 20260503190633 | 19 | 248 | 40.2 | 0.0 | 0.00 | 0.00 | 0.00 | 45 | 1010.4 |
| 20260503190132 | 18 | 241 | 35.4 | 0.0 | 0.00 | 0.00 | 0.00 | 45 | 1010.4 |
| 20260503185632 | 18 | 237 | 45.1 | 0.0 | 0.00 | 0.00 | 0.00 | 46 | 1010.5 |
| 20260503185132 | 18 | 237 | 38.6 | 0.0 | 0.00 | 0.00 | 0.00 | 46 | 1010.7 |
| 20260503184632 | 18 | 219 | 37.0 | 0.0 | 0.00 | 0.00 | 0.00 | 47 | 1010.8 |
| 20260503184131 | 18 | 227 | 49.9 | 0.0 | 0.00 | 0.00 | 0.00 | 46 | 1010.8 |
| 20260503183631 | 18 | 225 | 41.8 | 0.0 | 0.00 | 0.00 | 0.00 | 48 | 1010.9 |
| 20260503183131 | 18 | 210 | 35.4 | 0.0 | 0.00 | 0.00 | 0.00 | 49 | 1011.2 |
| 20260503182630 | 17 | 222 | 30.6 | 0.0 | 0.00 | 0.00 | 0.00 | 49 | 1011.2 |
| 20260503182130 | 17 | 236 | 38.6 | 0.0 | 0.00 | 0.00 | 0.00 | 49 | 1011.2 |
| 20260503181630 | 17 | 211 | 41.8 | 0.0 | 0.00 | 0.00 | 0.00 | 50 | 1011.1 |
| 20260503181130 | 17 | 210 | 38.6 | 0.0 | 0.00 | 0.00 | 0.00 | 50 | 1011.4 |
| 20260503180629 | 17 | 215 | 33.8 | 0.0 | 0.00 | 0.00 | 0.00 | 49 | 1011.5 |
| 20260503180129 | 17 | 223 | 38.6 | 0.0 | 0.00 | 0.00 | 0.00 | 51 | 1011.9 |
| 20260503175629 | 16 | 225 | 41.8 | 0.0 | 0.00 | 0.00 | 0.00 | 51 | 1012.0 |
| 20260503175128 | 16 | 229 | 30.6 | 0.0 | 0.00 | 0.00 | 0.00 | 51 | 1012.2 |
| 20260503174628 | 16 | 207 | 37.0 | 0.0 | 0.00 | 0.00 | 0.00 | 53 | 1012.5 |
| 20260503174128 | 16 | 219 | 30.6 | 0.0 | 0.00 | 0.00 | 0.00 | 52 | 1012.8 |
| 20260503173628 | 16 | 222 | 35.4 | 0.0 | 0.00 | 0.00 | 0.00 | 51 | 1012.7 |
| 20260503173127 | 16 | 219 | 35.4 | 0.0 | 0.00 | 0.00 | 0.00 | 52 | 1012.8 |
| 20260503172627 | 16 | 232 | 29.0 | 0.0 | 0.00 | 0.00 | 0.00 | 53 | 1013.0 |
| 20260503172127 | 16 | 218 | 22.5 | 0.0 | 0.00 | 0.00 | 0.00 | 53 | 1013.4 |
| 20260503171626 | 16 | 215 | 40.2 | 0.0 | 0.00 | 0.00 | 0.00 | 54 | 1013.6 |
| 20260503171126 | 15 | 236 | 30.6 | 0.0 | 0.00 | 0.00 | 0.00 | 55 | 1014.0 |
| 20260503170626 | 15 | 229 | 24.1 | 0.0 | 0.00 | 0.00 | 0.00 | 55 | 1014.0 |
| 20260503170126 | 15 | 229 | 29.0 | 0.0 | 0.00 | 0.00 | 0.00 | 55 | 1014.2 |
| 20260503160122 | 13 | 227 | 19.3 | 0.0 | 0.00 | 0.00 | 0.00 | 58 | 1014.9 |
| 20260503150620 | 12 | 240 | 24.1 | 0.0 | 0.00 | 0.00 | 0.00 | 63 | 1015.8 |
| 20260503150120 | 12 | 234 | 30.6 | 0.0 | 0.00 | 0.00 | 0.00 | 64 | 1015.9 |
| 20260503140115 | 11 | 360 | 17.7 | 0.0 | 0.00 | 0.00 | 0.00 | 70 | 1016.5 |
| 20260503131113 | 9 | 360 | 16.1 | 0.0 | 0.00 | 0.00 | 0.00 | 73 | 1017.3 |
| 20260503130612 | 9 | 360 | 20.9 | 0.0 | 0.00 | 0.00 | 0.00 | 73 | 1017.3 |
| 20260503130113 | 9 | 360 | 20.9 | 0.0 | 0.00 | 0.00 | 0.00 | 73 | 1017.4 |
| 20260503120110 | 7 | 229 | 20.9 | 0.0 | 0.00 | 0.00 | 0.00 | 76 | 1017.2 |
| 20260503110606 | 6 | 225 | 14.5 | 0.0 | 0.00 | 0.00 | 0.00 | 77 | 1017.0 |
| 20260503110105 | 6 | 227 | 19.3 | 0.0 | 0.00 | 0.00 | 0.00 | 77 | 1017.0 |